Overview Statistics Trail Chart Weather Telemetry Raw packets
 

This is the latest recevied weather packets stored in our database for station/object 9A7DI-13. If no packets are shown the sender has not sent any weather packets the latest 10 day(s).

<< 42 43 44 45 46 47 48 >>
Time Temp. Humidity Pressure Rain* Wind** Luminosity Snow
1788016012 28.33° C 41% 1023.6 hPa - - - -
1788015412 28.33° C 42% 1023.7 hPa - - - -
1788014812 28.33° C 41% 1023.6 hPa - - - -
1788014212 28.33° C 41% 1023.7 hPa - - - -
1788013612 28.33° C 41% 1023.8 hPa - - - -
1788013012 28.33° C 41% 1023.8 hPa - - - -
1788012412 28.33° C 41% 1023.8 hPa - - - -
1788011812 28.33° C 42% 1023.9 hPa - - - -
1788011212 28.33° C 42% 1023.9 hPa - - - -
1788010612 28.33° C 41% 1024.1 hPa - - - -
1788010012 28.33° C 41% 1024.2 hPa - - - -
1788009412 28.33° C 42% 1024.3 hPa - - - -
1788008812 28.33° C 41% 1024.3 hPa - - - -
1788008212 28.33° C 40% 1024.4 hPa - - - -
1788007612 28.33° C 41% 1024.5 hPa - - - -
1788007012 28.33° C 39% 1024.7 hPa - - - -
1788006412 28.33° C 41% 1024.9 hPa - - - -
1788005812 27.78° C 41% 1025.1 hPa - - - -
1788005212 28.33° C 43% 1025.3 hPa - - - -
1788004612 27.78° C 44% 1025.4 hPa - - - -
1788004012 26.67° C 54% 1025.3 hPa - - - -
1788003412 26.11° C 52% 1025.1 hPa - - - -
1788002213 25.56° C 53% 1025.2 hPa - - - -
1788001612 26.11° C 53% 1025 hPa - - - -
1788001012 26.11° C 49% 1024.9 hPa - - - -

* Rain since midnight (hover to see other rain measurements)
** Current wind speed in m/s (hover to see current wind gust speed)